Weather History for Lafayette, IN

Change the Weather History Date:

Wednesday, May 8, 2013

  Actual Average Record
Temperature  
Mean Temperature 65 °F 59 °F  
Max Temperature 78 °F 71 °F 87 °F (1979)
Min Temperature 52 °F 48 °F 28 °F (1976)
Degree Days  
Heating Degree Days 0 7  
Month to date heating degree days 19 61  
Since 1 July heating degree days 5776 5551  
Cooling Degree Days 0 1  
Month to date cooling degree days 2 8  
Year to date cooling degree days 5 21  
Moisture  
Dew Point 53 °F    
Average Humidity 71    
Maximum Humidity 100    
Minimum Humidity 41    
Precipitation  
Precipitation 0.02 in 0.13 in 1.12 in (1961)
Month to date precipitation 0.06 1.03  
Year to date precipitation 15.61 10.86  
Sea Level Pressure  
Sea Level Pressure 29.98 in    
Wind  
Wind Speed 3 mph (North)    
Max Wind Speed 23 mph    
Max Gust Speed 30 mph    
Visibility 10 miles    
Events Rain    
T = Trace of Precipitation, MM = Missing Value Source: NWS Daily Summary

Daily Weather History Graph

Daily Weather History Graph

Search for Another Location

Airport:

Trip Planner

Search our weather history database for the weather conditions in past years. The results will help you decide how hot, cold, wet, or windy it might be!

Date:

Astronomy

May. 08, 2013 Rise Set
Actual Time 6:38 AM EDT 8:50 PM EDT
Civil Twilight 6:08 AM EDT 9:21 PM EDT
Nautical Twilight 5:31 AM EDT 9:58 PM EDT
Astronomical Twilight 4:50 AM EDT 10:39 PM EDT
Moon 5:46 AM EDT (5/8) 7:48 PM EDT (5/8)
Length of Visible Light 15h 12m
Length of Day
14h 12m
Waning Crescent, 2% of the Moon is Illuminated
May 8
Waning Crescent
May 9
New
May 18
First Quarter
May 25
Full
May 31
Last Quarter

Hourly Weather History & Observations

Time (EDT) Temp. Dew Point Humidity Pressure Visibility Wind Dir Wind Speed Gust Speed Precip Events Conditions
12:54 AM 64.0 °F 53.1 °F 67% 29.98 in 10.0 mi NE 5.8 mph - N/A   Overcast
1:54 AM 63.0 °F 52.0 °F 67% 29.97 in 10.0 mi Calm Calm - N/A   Overcast
2:54 AM 59.0 °F 52.0 °F 78% 29.96 in 10.0 mi ENE 3.5 mph - N/A   Mostly Cloudy
3:54 AM 57.0 °F 52.0 °F 83% 29.96 in 10.0 mi Calm Calm - N/A   Clear
4:54 AM 54.0 °F 52.0 °F 93% 29.97 in 10.0 mi Calm Calm - N/A   Clear
5:54 AM 54.0 °F 51.1 °F 90% 29.97 in 10.0 mi Calm Calm - N/A   Clear
6:54 AM 52.0 °F 51.1 °F 97% 29.99 in 9.0 mi Calm Calm - N/A   Clear
7:54 AM 54.0 °F 52.0 °F 93% 30.01 in 10.0 mi Calm Calm - N/A   Partly Cloudy
8:54 AM 57.9 °F 54.0 °F 87% 30.02 in 10.0 mi Calm Calm - N/A   Scattered Clouds
9:54 AM 62.1 °F 57.0 °F 84% 30.03 in 9.0 mi Calm Calm - N/A   Clear
10:54 AM 68.0 °F 59.0 °F 73% 30.02 in 10.0 mi ESE 3.5 mph - N/A   Mostly Cloudy
11:54 AM 24.1 °F 13.1 °F 63% 30.03 in 10.0 mi North - - N/A   Unknown
12:54 PM 75.0 °F 53.1 °F 46% 30.01 in 10.0 mi Variable 3.5 mph - N/A   Clear
1:54 PM 77.0 °F 53.1 °F 43% 29.99 in 10.0 mi North 6.9 mph - N/A   Clear
2:54 PM 75.9 °F 50.0 °F 40% 29.98 in 10.0 mi Variable 3.5 mph - N/A   Scattered Clouds
3:54 PM 69.1 °F 55.0 °F 61% 29.98 in 10.0 mi NW 15.0 mph 29.9 mph 0.00 in Rain Light Rain
4:54 PM 71.1 °F 60.1 °F 68% 29.96 in 10.0 mi West 4.6 mph - 0.02 in   Scattered Clouds
5:54 PM 73.9 °F 53.1 °F 48% 29.95 in 10.0 mi West 8.1 mph - N/A   Mostly Cloudy
6:54 PM 73.9 °F 59.0 °F 59% 29.95 in 10.0 mi Calm Calm - N/A   Mostly Cloudy
7:54 PM 70.0 °F 55.0 °F 59% 29.95 in 10.0 mi Calm Calm - N/A   Partly Cloudy
8:54 PM 66.0 °F 57.9 °F 75% 29.96 in 10.0 mi Calm Calm - N/A   Overcast
9:54 PM 63.0 °F 57.9 °F 84% 29.97 in 10.0 mi Calm Calm - N/A   Overcast
10:54 PM 62.1 °F 55.9 °F 80% 29.99 in 10.0 mi Calm Calm - N/A   Overcast
11:54 PM 60.1 °F 54.0 °F 80% 30.00 in 10.0 mi NNE 4.6 mph - N/A   Scattered Clouds